This is the latest recevied weather packets stored in our database for station/object K4HOG. If no packets are shown the sender has not sent any weather packets the latest 10 day(s).
| Time | Temp. | Humidity | Pressure | Rain* | Wind** | Luminosity | Snow |
|---|---|---|---|---|---|---|---|
| 1777743586 | 27.78° C | 71% | 1010.9 hPa | 0 mm | - | 7 W/m² | - |
| 1777743283 | 27.78° C | 70% | 1010.4 hPa | 0 mm | - | 32 W/m² | - |
| 1777742981 | 28.33° C | 69% | 1010.5 hPa | 0 mm | - | 40 W/m² | - |
| 1777742678 | 28.33° C | 68% | 1010.6 hPa | 0 mm | - | 49 W/m² | - |
| 1777742374 | 28.89° C | 67% | 1010.6 hPa | 0 mm | - | 62 W/m² | - |
| 1777742070 | 28.89° C | 66% | 1010.4 hPa | 0 mm | - | 116 W/m² | - |
| 1777741768 | 28.89° C | 66% | 1010.2 hPa | 0 mm | - | 158 W/m² | - |
| 1777741464 | 29.44° C | 65% | 1010.6 hPa | 0 mm | - | 170 W/m² | - |
| 1777741160 | 29.44° C | 64% | 1010.4 hPa | 0 mm | - | 126 W/m² | - |
| 1777740858 | 30° C | 63% | 1010 hPa | 0 mm | - | 233 W/m² | - |
| 1777740554 | 30° C | 62% | 1010.4 hPa | 0 mm | - | 442 W/m² | - |
| 1777740251 | 30° C | 61% | 1010.7 hPa | 0 mm | - | 330 W/m² | - |
| 1777739947 | 30° C | 61% | 1010.6 hPa | 0 mm | - | 532 W/m² | - |
| 1777739643 | 30° C | 61% | 1010.8 hPa | 0 mm | - | 399 W/m² | - |
| 1777739341 | 30° C | 61% | 1010.5 hPa | 0 mm | - | 611 W/m² | - |
| 1777739038 | 30.56° C | 59% | 1010.6 hPa | 0 mm | - | 552 W/m² | - |
| 1777738735 | 30.56° C | 61% | 1010.6 hPa | 0 mm | - | 691 W/m² | - |
| 1777738431 | 30° C | 62% | 1010.3 hPa | 0 mm | - | 581 W/m² | - |
| 1777738129 | 29.44° C | 63% | 1010.4 hPa | 0 mm | - | 601 W/m² | - |
| 1777737827 | 29.44° C | 64% | 1010.2 hPa | 0 mm | - | 407 W/m² | - |
| 1777737526 | 29.44° C | 63% | 1010.1 hPa | 0 mm | - | 339 W/m² | - |
| 1777737223 | 29.44° C | 63% | 1010.2 hPa | 0 mm | - | 381 W/m² | - |
| 1777736919 | 29.44° C | 63% | 1010 hPa | 0 mm | - | 390 W/m² | - |
| 1777736310 | 30° C | 61% | 1010.1 hPa | 0 mm | - | 399 W/m² | - |
| 1777736007 | 30° C | 61% | 1010.4 hPa | 0 mm | - | 400 W/m² | - |
* Rain latest hour (hover to see other rain measurements)
** Current wind speed in m/s (hover to see current wind gust speed)